sat.trackr.live / text

‹ back to catalog

ONEWEB-0335

NORAD 49201 · 2021-083R

PAYLOAD ACTIVE UNKNOWN

§ Identity

Operator
Country
UK
Launch date
2021-09-14
Launch site
TYMSC
Launch vehicle
Mass (kg)
RCS (m²)

Purposes: comms

External: N2YO · Heavens-Above · Gunter

§ Orbital elements

Epoch: 2026-09-19T19:46:19.814016Z

Period
109.63 min
Inclination
87.8913°
Eccentricity
0.0001996
Mean motion
13.13469050 rev/d
Perigee alt
1,208.3 km
Apogee alt
1,211.3 km
Semi-major
7,587.9 km
B*
-7.1175e-4
RAAN
301.4003°
Arg perigee
99.1502°
Mean anomaly
260.9853°
Rev number
24,334

§ Raw data

ONEWEB-03351 49201U 21083R   26262.82384044 -.00000247  00000+0 -71175-3 0  99992 49201  87.8913 301.4003 0001996  99.1502 260.9853 13.13469050243347

JSON: /api/v1/satellites/49201 · /tle

For live sub-satellite position, see the globe view (requires WebGL).

§ Visibility from observer

Set your observer location to see the next 7 days of passes ≥ 10°. The values pass through the URL so the page stays shareable.

No JS? Fill the form by hand. The geolocation button needs JavaScript.